Location: Eschertshofen
(49.3064°N, 11.5756°E)
Time: 04:04:38
(UTC+00:00)

Cosmos 2251 Rocket - Pass Details

Date: 18 September 2020
Orbit: 764 x 792 km, 74.0° (Epoch: 20 October)

Event Time Altitude Azimuth Distance (km) Brightness Sun altitude
Rises 20:05:49 0° 340° (NNW) 3,303 7.7 -26.0°
Reaches altitude 10° 20:08:25 10° 349° (NNW) 2,368 6.6 -26.3°
Enters shadow 20:12:50 37° 42° (NE) 1,226 4.5 -26.9°
